This is the latest recevied weather packets stored in our database for station/object SP9MUF-14. If no packets are shown the sender has not sent any weather packets the latest 1 day(s).
| Time | Temp. | Humidity | Pressure | Rain* | Wind** | Luminosity | Snow |
|---|---|---|---|---|---|---|---|
| 1777999854 | 25.56° C | 22% | 1005.5 hPa | 0 mm | - | 50 W/m² | - |
| 1777999550 | 25.56° C | 21% | 1005.5 hPa | 0 mm | - | 51 W/m² | - |
| 1777999246 | 25.56° C | 21% | 1005.5 hPa | 0 mm | - | 40 W/m² | - |
| 1777998942 | 25.56° C | 21% | 1005.6 hPa | 0 mm | - | 35 W/m² | - |
| 1777998639 | 25.56° C | 20% | 1005.5 hPa | 0 mm | - | 56 W/m² | - |
| 1777998031 | 26.67° C | 19% | 1005.3 hPa | 0 mm | - | 79 W/m² | - |
| 1777997426 | 26.67° C | 20% | 1005.3 hPa | 0 mm | - | 93 W/m² | - |
| 1777997122 | 26.67° C | 21% | 1005.3 hPa | 0 mm | - | 103 W/m² | - |
| 1777995903 | 26.67° C | 20% | 1005.3 hPa | 0 mm | - | 152 W/m² | - |
| 1777994991 | 27.78° C | 20% | 1005.3 hPa | 0 mm | - | 191 W/m² | - |
| 1777994687 | 27.78° C | 20% | 1005.3 hPa | 0 mm | - | 206 W/m² | - |
| 1777994080 | 27.78° C | 20% | 1005.3 hPa | 0 mm | - | 271 W/m² | - |
| 1777993167 | 27.78° C | 21% | 1005.6 hPa | 0 mm | - | 331 W/m² | - |
| 1777992863 | 26.67° C | 22% | 1005.7 hPa | 0 mm | - | 378 W/m² | - |
| 1777992255 | 25.56° C | 22% | 1005.9 hPa | 0 mm | - | 238 W/m² | - |
| 1777991951 | 25.56° C | 23% | 1003 hPa | 0 mm | - | 164 W/m² | - |
| 1777991647 | 25.56° C | 23% | 1006 hPa | 0 mm | - | 138 W/m² | - |
| 1777991343 | 25.56° C | 23% | 1006.1 hPa | 0 mm | - | 142 W/m² | - |
| 1777991039 | 25.56° C | 23% | 1006.1 hPa | 0 mm | - | 152 W/m² | - |
| 1777990735 | 25.56° C | 23% | 1006.2 hPa | 0 mm | - | 161 W/m² | - |
| 1777990431 | 25.56° C | 23% | 1006.2 hPa | 0 mm | - | 163 W/m² | - |
| 1777990127 | 25.56° C | 22% | 1006.3 hPa | 0 mm | - | 176 W/m² | - |
| 1777989519 | 26.67° C | 22% | 1006.4 hPa | 0 mm | - | 214 W/m² | - |
| 1777989215 | 25.56° C | 22% | 1006.5 hPa | 0 mm | - | 216 W/m² | - |
| 1777988915 | 26.67° C | 22% | 1006.6 hPa | 0 mm | - | 227 W/m² | - |
* Rain latest hour (hover to see other rain measurements)
** Current wind speed in m/s (hover to see current wind gust speed)